Regional Weather Roundup
Issued by NWS

Home | Current Version | Previous Version | Graphics & Text | Print | Product List | Glossary On
Versions: 1 2 3 4 5 6 7 8 9 10 11 12 13 14 15 16 17 18 19 20 21 22 23 24 25 26 27
000
ASUS45 KBOU 171006
RWRCO

WEATHER ROUNDUP FOR COLORADO
NATIONAL WEATHER SERVICE DENVER/BOULDER CO
400 AM MDT THU APR 17 2014

NOTE: "FAIR" INDICATES FEW OR NO CLOUDS BELOW 12000 FEET WITH NO
SIGNIFICANT WEATHER AND/OR OBSTRUCTIONS TO VISIBILITY.

COZ001>005-013-030-031-171100-
...NORTHWEST COLORADO...

CITY           SKY/WX    TMP DP  RH WIND       PRES   REMARKS
CRAIG          CLOUDY    24  17  74 E5        30.07R WCI  18
HAYDEN         CLEAR     28  16  59 S5        30.07R WCI  23
MEEKER         CLEAR     30  21  69 NE5       30.06R WCI  25
MOUNT WERNER   NOT AVBL
STEAMBOAT SPGS CLEAR     28  16  61 CALM      30.06R
WALDEN         CLEAR     21  14  73 SE6       30.04F WCI  14
$$

COZ006>008-011-171100-
...WEST CENTRAL VALLEYS...

CITY           SKY/WX    TMP DP  RH WIND       PRES   REMARKS
GRAND JUNCTION CLEAR     39  21  48 E8        30.00R
MONTROSE       CLEAR     34  25  69 SE8       30.06R WCI  27
EAGLE          PTCLDY    28  19  69 CALM      30.10R
RIFLE          CLEAR     32  22  66 SW3       30.04R
DELTA          CLEAR     35  24  62 NE8       30.04S WCI  29
NUCLA            N/A     32  27  80 E7        30.08S WCI  26
$$

COZ017>023-064>068-171100-
...SOUTHWEST COLORADO...

CITY           SKY/WX    TMP DP  RH WIND       PRES   REMARKS
DURANGO        CLEAR     30  20  66 N6        30.04R WCI  24
CORTEZ         CLEAR     27  20  75 NE7       30.06R WCI  19
PAGOSA SPRINGS CLEAR     30  22  70 CALM      30.07R
TELLURIDE      PTCLDY    28  21  74 E6        30.10S WCI  22
WOLF CREEK PAS CLEAR     19  14  79 NE10      30.13R WCI   8
$$

COZ009-010-012-014-032>034-037-058>063-171100-
...CENTRAL COLORADO...

CITY           SKY/WX    TMP DP  RH WIND       PRES   REMARKS
ASPEN          PTCLDY    29  16  58 SW7       30.06S WCI  22
BUENA VISTA    CLOUDY    27  26  95 CALM      30.12S
COPPER MTN     PTCLDY    23  12  63 SW8       30.11R WCI  14
BERTHOUD PASS  FAIR      14   5  67 W20       30.09S WCI  -3
COTTONWOOD PAS MOCLDY    28  27  93 SE3       30.12S
GUNNISON       CLEAR     25  18  74 CALM      30.12R
KREMMLING      CLOUDY    28  21  74 CALM      30.08S
LEADVILLE      CLOUDY    22  20  92 CALM      30.10S
MONARCH PASS   FOG       18  14  86 MISG      30.22R VSB 1/4
SALIDA         CLOUDY    33  31  95 SE5       30.20S WCI  28
SUNLIGHT       CLOUDY    28  14  54 CALM      30.12S
WILKERSON PASS FOG       19  18  93 SW7       30.13S VSB 3/4 WCI  10
$$

COZ069>075-171100-
...SAN LUIS VALLEY/SANGRE DE CRISTO MOUNTAINS...

CITY           SKY/WX    TMP DP  RH WIND       PRES   REMARKS
ALAMOSA        MOCLDY    29  27  92 SE5       30.10S WCI  24
LA VETA PASS   FOG       21  19  93 MISG      30.12S VSB 1/4
SAGUACHE       PTCLDY    30  28  93 E3        30.11R
$$

COZ035-036-038>040-171100-
...NORTHERN COLORADO FRONT RANGE...

CITY           SKY/WX    TMP DP  RH WIND       PRES   REMARKS
DENVER INTL AP PTCLDY    31  27  85 S15       30.06F WCI  20
DMNS CITY PARK   N/A     36  29  76 S3        30.06S
AURORA         PTCLDY    36  30  80 S15       30.06F
FRONT RANGE AP NOT AVBL
ERIE MUNI ARPT CLEAR     33  31  92 CALM      30.05F
BOULDER MUN AP CLEAR     37  30  75 CALM      30.05F
CENTENNIAL     CLEAR     33  28  81 S9        30.06F WCI  25
BROOMFIELD     CLEAR     34  32  93 SW3       30.06F
FORT COLLINS   CLEAR     34  28  80 E7        30.08S WCI  28
LONGMONT       CLEAR     34  28  81 CALM      30.08S
$$

COZ041-046-047-076>085-087-088-171100-
...PIKES PEAK/PALMER DIVIDE AND SOUTHERN FOOTHILLS...

CITY           SKY/WX    TMP DP  RH WIND       PRES   REMARKS
COLO. SPRINGS  SNOW      34  32  92 SE10      30.13S VSB 1/2 WCI  26
A. F. ACADEMY  CLOUDY    32  32 100 CALM      30.11S
ELLICOTT       NOT AVBL
FALCON         CLOUDY    32  32 100 S12       30.12F FOG     WCI  23
FORT CARSON    CLOUDY    33  33  99 S9        30.11F WCI  25
LIMON          MOCLDY    35  33  92 S12       30.12F WCI  27
MONUMENT HILL  MOCLDY    30  30 100 S14G23    30.09S WCI  20
TRINIDAD       LGT SNOW  34  32  92 CALM      30.15R FOG
$$

COZ042>045-048>051-090-091-171100-
...NORTHEAST COLORADO...

CITY           SKY/WX    TMP DP  RH WIND       PRES   REMARKS
GREELEY ARPT   CLEAR     32  25  74 E5        30.08F WCI  27
AKRON          FOG       31  31 100 SE15      30.12S VSB 1   WCI  20
BURLINGTON     CLOUDY    35  31  85 E8        30.15S WCI  29
WRAY           CLOUDY    34  32  93 E7        30.17S WCI  28
STERLING       CLOUDY    36  34  93 S7        30.14R
HOLYOKE        CLOUDY    34  32  93 E8        30.18S WCI  27
FORT MORGAN    PTCLDY    31  29  95 E9        30.11S WCI  22
$$

COZ086-089-092>099-171100-
...SOUTHEAST COLORADO...

CITY           SKY/WX    TMP DP  RH WIND       PRES   REMARKS
PUEBLO         CLOUDY    38  37  97 W5        30.15S
LA JUNTA       CLOUDY    41  37  86 SE7       30.16R
LAMAR          LGT RAIN  41  37  86 NE6       30.14S
SPRINGFIELD      N/A     39  36  89 NE13      30.14R
$$



USA.gov is the U.S. government's official web portal to all federal, state and local government web resources and services.